[[{"header":{"parameterUnit":"m.s-1","parameterCategory":1,"la1":30.2991,"la2":30.254,"lo1":-89.0895,"lo2":-89.0444,"dy":0.0017,"dx":0.0017,"nx":28,"ny":28,"refTime":"2024-10-02T09:00:00:Z","depth":0,"parameterNumber":2,"parameterNumberName":"U-component_of_WINDS"},"data":[0,0,0,0,0,0,0,0,0,0,0,0,0,0,0,0,0,0,0,0,0,0,0,0,0,0,0,0,0,0,0,0,0,0,0,0,0,0,0,0,0,0,0,0,0,0,0,0,0,0,0,0,0,0,0,0,0,0,-2.0089,-2.0089,0,-2.0123,-2.0123,-2.0124,-2.0085,-2.0084,-2.0083,-2.0081,-2.0115,-2.0117,-2.0119,0,0,0,0,0,0,0,0,0,0,0,0,0,-1.9987,-1.9989,-2.0088,-2.0089,-2.0089,-2.0123,-2.0123,-2.0124,-2.0086,-2.0084,-2.0082,-2.0081,-2.0114,-2.0117,-2.0119,0,0,0,0,0,0,0,0,0,0,0,0,0,-2.0027,-1.999,-2.0088,-2.0074,-2.0073,-2.0123,-2.0123,-2.0124,-2.0086,-2.0084,-2.0082,-2.008,-2.0113,-2.0116,-2.012,-2.0184,0,0,-2.013,-2.0131,0,0,0,0,0,0,0,0,-2.0025,-2.0031,-2.0076,-2.0075,-2.0075,-2.0098,-2.01,-2.0144,-2.0087,-2.0081,-2.0081,-2.0079,-2.0111,-2.0114,-2.0125,-2.0186,-2.0187,-2.013,-2.0132,-2.0134,-2.0135,0,0,0,0,0,0,0,-2.0022,-2.0029,-2.0102,-2.0077,-2.0076,-2.0066,-2.0069,-2.0108,-2.0108,-2.0082,-2.0079,-2.0084,-2.011,-2.0122,-2.0126,-2.0187,-2.013,-2.0133,-2.0135,-2.0137,-2.0302,-2.0304,0,0,0,0,0,0,-2.0021,-2.0027,-2.0101,-2.0103,-2.0044,-2.0069,-2.0073,-2.0092,-2.0107,-2.0107,-2.0085,-2.0082,-2.0117,-2.0122,-2.0127,-2.0203,-2.0134,-2.0137,-2.0139,-2.0299,-2.0302,-2.0305,0,0,0,0,0,0,-2.0019,-2.0028,-2.01,-2.0064,-2.0073,-2.0073,-2.0096,-2.0094,-2.0107,-2.011,-2.011,-2.0098,-2.0116,-2.0122,-2.017,-2.0203,-2.0138,-2.0141,-2.0296,-2.03,-2.0303,-2.0356,0,0,0,0,0,0,-2.0017,-2.0028,-2.0053,-2.0065,-2.0075,-2.0143,-2.0098,-2.0097,-2.0113,-2.0108,-2.0122,-2.0122,-2.0115,-2.0165,-2.0173,-2.0207,-2.0144,-2.0293,-2.0298,-2.0302,-2.0351,-2.0361,-2.0369,0,0,0,0,0,-2.0013,-2.0066,-2.0054,-2.0063,-2.0106,-2.0145,-2.015,-2.0141,-2.0116,-2.014,-2.0142,-2.0122,-2.0199,-2.017,-2.0179,-2.0214,-2.0291,-2.0297,-2.0302,-2.0347,-2.0359,-2.0369,0,0,0,0,0,0,-2.0057,-2.0067,-2.0055,-2.0113,-2.0129,-2.0139,-2.017,-2.0154,-2.0177,-2.0171,-2.0158,-2.0162,-2.0213,-2.0218,-2.0187,-2.0277,-2.0241,-2.0248,-2.0272,-2.0283,-2.0292,-2.0289,-2.0147,0,0,0,0,0,-2.0073,-2.0105,-2.0112,-2.0163,-2.0171,-2.0169,-2.0186,-2.0178,-2.0193,-2.0199,-2.0204,-2.0219,-2.0247,-2.0265,-2.0291,-2.0351,-2.0354,-2.038,-2.0389,-2.0396,-2.0403,-2.0435,-2.0446,-2.0322,-2.0322,-2.0322,0,0,-2.0108,-2.0117,-2.0138,-2.0172,-2.0183,-2.0215,-2.0175,-2.0211,-2.0234,-2.0204,-2.025,-2.0255,-2.027,-2.0325,-2.0349,-2.0331,-2.0437,-2.0403,-2.0409,-2.0411,-2.0441,-2.0453,-2.0464,-2.0326,-2.0325,-2.0324,0,0,-2.0187,-2.0197,-2.0241,-2.0253,-2.027,-2.0268,-2.0279,-2.0291,-2.0293,-2.0339,-2.0317,-2.0344,-2.0392,-2.0404,-2.0416,-2.05,-2.0481,-2.0508,-2.0555,-2.0586,-2.0596,-2.0605,-2.0634,-2.0645,-2.0514,-2.0515,-2.0515,0,-2.0227,-2.0275,-2.0265,-2.0303,-2.0318,-2.0292,-2.0336,-2.0348,-2.0372,-2.0383,-2.0362,-2.0421,-2.043,-2.0487,-2.0508,-2.0518,-2.0529,-2.0507,-2.0596,-2.0604,-2.0612,-2.064,-2.0651,-2.0518,-2.0517,-2.0517,-2.0517,0,-2.0324,-2.0358,-2.0391,-2.0416,-2.0434,-2.0475,-2.047,-2.049,-2.048,-2.048,-2.0527,-2.0536,-2.0563,-2.0576,-2.0566,-2.0632,-2.062,-2.0598,-2.0561,-2.0627,-2.0653,-2.0664,-2.0522,-2.0521,-2.052,-2.0519,0,0,-2.0432,-2.045,-2.0463,-2.0474,-2.0491,-2.0516,-2.0555,-2.0582,-2.0599,-2.0617,-2.0648,-2.0689,-2.0669,-2.0683,-2.0674,-2.0702,-2.0767,-2.0676,-2.0676,-2.0692,-2.0839,-2.0855,-2.0868,-2.0754,-2.0756,-2.0758,-2.0837,0,-2.0511,-2.0579,-2.0571,-2.0636,-2.0666,-2.0642,-2.0676,-2.069,-2.0691,-2.0716,-2.0717,-2.0746,-2.0717,-2.0725,-2.0751,-2.0753,-2.0796,-2.0747,-2.0783,-2.0785,-2.078,-2.0882,-2.0899,-2.0974,-2.0848,-2.0849,-2.085,0,-2.0613,-2.0635,-2.0703,-2.0715,-2.0727,-2.0758,-2.0781,-2.0806,-2.0821,-2.082,-2.0836,-2.0822,-2.086,-2.0822,-2.0874,-2.0841,-2.0855,-2.0858,-2.0861,-2.0864,-2.0822,-2.0887,-2.0998,-2.1009,-2.0866,-2.0865,-2.0864,0,-2.0684,-2.0731,-2.0777,-2.0787,-2.0803,-2.0825,-2.0832,-2.0844,-2.0861,-2.0881,-2.0892,-2.0916,-2.0929,-2.0948,-2.0941,-2.0914,-2.0994,-2.0956,-2.0994,-2.0994,-2.1012,-2.1011,-2.1126,-2.1021,-2.1021,-2.1021,-2.102,0,-2.0774,-2.0816,-2.081,-2.0839,-2.0885,-2.0875,-2.0921,-2.0925,-2.0936,-2.0965,-2.0945,-2.0972,-2.0961,-2.0987,-2.0982,-2.1025,-2.1032,-2.1031,-2.1029,-2.1033,-2.1033,-2.1042,-2.1037,-2.1024,-2.1023,-2.1022,-2.1022,0,-2.0862,-2.0859,-2.0909,-2.0919,-2.0923,-2.0957,-2.0965,-2.0992,-2.0991,-2.1027,-2.1035,-2.1034,-2.1064,-2.1058,-2.1091,-2.1087,-2.1142,-2.1133,-2.1137,-2.1135,-2.1173,-2.117,-2.1298,-2.1314,-2.1199,-2.12,-2.1201,0,-2.0919,-2.0952,-2.0966,-2.0984,-2.0993,-2.1022,-2.1039,-2.1029,-2.1047,-2.1066,-2.1091,-2.1119,-2.1141,-2.1189,-2.1191,-2.1215,-2.1207,-2.1251,-2.1211,-2.1214,-2.1208,-2.1206,-2.1209,-2.1258,-2.126,-2.1261,-2.1262,0,-2.1021,-2.1018,-2.1044,-2.1069,-2.109,-2.1109,-2.1126,-2.1141,-2.1133,-2.1155,-2.1185,-2.1202,-2.1236,-2.1264,-2.1287,-2.1293,-2.1276,-2.1274,-2.1284,-2.1289,-2.1289,-2.1289,-2.1159,-2.1271,-2.127,-2.127,-2.1269,-2.1269,-2.1096,-2.1123,-2.1137,-2.1166,-2.1178,-2.1194,-2.122,-2.1223,-2.1248,-2.1275,-2.1268,-2.1302,-2.1315,-2.1344,-2.1353,-2.138,-2.1364,-2.1378,-2.1382,-2.1386,-2.139,-2.1285,-2.1384,-2.1383,-2.1383,-2.1383,-2.1383,0,-2.1196,-2.1204,-2.1231,-2.1256,-2.1278,-2.1261,-2.1279,-2.1299,-2.1329,-2.1343,-2.1366,-2.14,-2.1427,-2.1431,-2.1456,-2.1476,-2.1469,-2.1483,-2.1482,-2.1483,-2.1403,-2.1392,-2.1489,-2.1489,-2.1489,-2.1489,-2.1489,-2.1489,-2.1252,-2.1297,-2.1296,-2.1347,-2.1354,-2.1388,-2.14,-2.1415,-2.1426,-2.1466,-2.1488,-2.149,-2.15,-2.1526,-2.155,-2.155,-2.156,-2.1577,-2.1575,-2.15,-2.1489,-2.1479,-2.1468,-2.158,-2.158,-2.1653,-2.1653,-2.1654]},{"header":{"parameterUnit":"m.s-1","parameterCategory":1,"la1":30.2991,"la2":30.254,"lo1":-89.0895,"lo2":-89.0444,"dy":0.0017,"dx":0.0017,"nx":28,"ny":28,"refTime":"2024-10-02T09:00:00:Z","depth":0,"parameterNumber":3,"parameterNumberName":"V-component_of_WINDS"},"data":[0,0,0,0,0,0,0,0,0,0,0,0,0,0,0,0,0,0,0,0,0,0,0,0,0,0,0,0,0,0,0,0,0,0,0,0,0,0,0,0,0,0,0,0,0,0,0,0,0,0,0,0,0,0,0,0,0,0,-1.818,-1.818,0,-1.8178,-1.8178,-1.8178,-1.8164,-1.8164,-1.8163,-1.8163,-1.816,-1.816,-1.8161,0,0,0,0,0,0,0,0,0,0,0,0,0,-1.817,-1.8171,-1.818,-1.818,-1.818,-1.8178,-1.8178,-1.8178,-1.8164,-1.8164,-1.8163,-1.8163,-1.816,-1.816,-1.8161,0,0,0,0,0,0,0,0,0,0,0,0,0,-1.8172,-1.8171,-1.818,-1.8173,-1.8172,-1.8178,-1.8178,-1.8178,-1.8164,-1.8164,-1.8163,-1.8163,-1.816,-1.816,-1.8161,-1.8173,0,0,-1.8162,-1.8162,0,0,0,0,0,0,0,0,-1.8172,-1.8172,-1.8174,-1.8173,-1.8173,-1.8171,-1.8174,-1.8176,-1.8164,-1.8167,-1.8163,-1.8162,-1.8164,-1.8164,-1.8165,-1.8173,-1.8173,-1.8162,-1.8162,-1.8162,-1.8162,0,0,0,0,0,0,0,-1.8172,-1.8172,-1.8179,-1.8174,-1.8173,-1.8169,-1.8169,-1.8174,-1.8168,-1.8167,-1.8166,-1.8166,-1.8164,-1.8164,-1.8165,-1.8173,-1.8162,-1.8162,-1.8162,-1.8163,-1.819,-1.819,0,0,0,0,0,0,-1.8173,-1.8172,-1.8179,-1.8179,-1.8171,-1.817,-1.8169,-1.8172,-1.8168,-1.8167,-1.8166,-1.8165,-1.8164,-1.8164,-1.8164,-1.8178,-1.8162,-1.8163,-1.8163,-1.8189,-1.819,-1.8191,0,0,0,0,0,0,-1.8173,-1.8174,-1.8179,-1.8175,-1.8176,-1.817,-1.8173,-1.8172,-1.8173,-1.8168,-1.8167,-1.8168,-1.8164,-1.8164,-1.8171,-1.8178,-1.8163,-1.8163,-1.8189,-1.819,-1.819,-1.8205,0,0,0,0,0,0,-1.8173,-1.8174,-1.8179,-1.8176,-1.8176,-1.8186,-1.8174,-1.8172,-1.8174,-1.8172,-1.8169,-1.8169,-1.8163,-1.817,-1.8171,-1.8178,-1.8163,-1.8188,-1.8189,-1.819,-1.8204,-1.8207,-1.8209,0,0,0,0,0,-1.8172,-1.8183,-1.8179,-1.818,-1.8182,-1.8187,-1.8187,-1.8181,-1.8174,-1.8179,-1.8176,-1.8169,-1.8177,-1.8171,-1.8172,-1.8179,-1.8188,-1.8189,-1.819,-1.8203,-1.8206,-1.8209,0,0,0,0,0,0,-1.8187,-1.8183,-1.8178,-1.8189,-1.8188,-1.8184,-1.819,-1.8184,-1.8186,-1.8184,-1.8176,-1.8176,-1.8184,-1.8182,-1.8176,-1.819,-1.8181,-1.8182,-1.8191,-1.8193,-1.8196,-1.8195,-1.8164,0,0,0,0,0,-1.8192,-1.8196,-1.8192,-1.8201,-1.8201,-1.8196,-1.8197,-1.8193,-1.8192,-1.8192,-1.8189,-1.8188,-1.819,-1.8192,-1.8194,-1.8204,-1.8203,-1.8209,-1.8211,-1.8213,-1.8214,-1.8218,-1.8221,-1.8194,-1.8194,-1.8194,0,0,-1.8201,-1.8199,-1.8202,-1.8204,-1.8203,-1.8207,-1.8196,-1.8201,-1.8203,-1.8192,-1.8198,-1.8196,-1.8195,-1.8203,-1.8207,-1.8202,-1.8221,-1.8214,-1.8216,-1.8216,-1.822,-1.8222,-1.8224,-1.8195,-1.8195,-1.8195,0,0,-1.822,-1.8219,-1.8227,-1.8226,-1.8225,-1.8221,-1.8223,-1.822,-1.8218,-1.8224,-1.8215,-1.8218,-1.8223,-1.8221,-1.8221,-1.8239,-1.8232,-1.824,-1.8251,-1.8255,-1.8257,-1.8259,-1.8264,-1.8266,-1.8241,-1.8241,-1.8241,0,-1.8232,-1.8238,-1.8231,-1.8236,-1.8237,-1.8227,-1.8234,-1.8234,-1.8233,-1.8233,-1.8228,-1.8233,-1.8231,-1.8239,-1.8243,-1.8243,-1.8244,-1.824,-1.8257,-1.8259,-1.8261,-1.8265,-1.8268,-1.8242,-1.8242,-1.8242,-1.8242,0,-1.8251,-1.8256,-1.8262,-1.8261,-1.8262,-1.8268,-1.8262,-1.8264,-1.8259,-1.8256,-1.8262,-1.8259,-1.826,-1.8262,-1.8257,-1.8268,-1.8265,-1.8259,-1.8249,-1.8264,-1.8268,-1.827,-1.8243,-1.8243,-1.8243,-1.8242,0,0,-1.828,-1.8275,-1.8277,-1.8277,-1.8274,-1.8277,-1.8282,-1.8283,-1.8284,-1.8284,-1.8288,-1.8291,-1.8285,-1.8285,-1.828,-1.8284,-1.8296,-1.8277,-1.8277,-1.828,-1.8307,-1.8311,-1.8314,-1.8292,-1.8292,-1.8293,-1.8307,0,-1.8297,-1.8306,-1.83,-1.8309,-1.8312,-1.8303,-1.8307,-1.8306,-1.8303,-1.8304,-1.8301,-1.8303,-1.8295,-1.8295,-1.8298,-1.8294,-1.8302,-1.8293,-1.8294,-1.8295,-1.8294,-1.8316,-1.8321,-1.8334,-1.8309,-1.8309,-1.8309,0,-1.8319,-1.8319,-1.8329,-1.8325,-1.8326,-1.833,-1.8329,-1.8332,-1.8329,-1.8327,-1.8326,-1.832,-1.8324,-1.8315,-1.832,-1.8314,-1.8315,-1.8313,-1.8313,-1.8312,-1.8302,-1.8315,-1.8339,-1.8341,-1.8312,-1.8312,-1.8312,0,-1.8337,-1.834,-1.8346,-1.8346,-1.8341,-1.8344,-1.8343,-1.834,-1.834,-1.834,-1.834,-1.834,-1.834,-1.834,-1.8334,-1.8328,-1.8339,-1.833,-1.8336,-1.8336,-1.8338,-1.8338,-1.8361,-1.834,-1.834,-1.834,-1.834,0,-1.8357,-1.8363,-1.8354,-1.8358,-1.8364,-1.8357,-1.8363,-1.836,-1.8358,-1.836,-1.8352,-1.8354,-1.8346,-1.8347,-1.8342,-1.8347,-1.8347,-1.8344,-1.8343,-1.8344,-1.8345,-1.8344,-1.8342,-1.834,-1.834,-1.834,-1.834,0,-1.8378,-1.8373,-1.8378,-1.8374,-1.8373,-1.8377,-1.8373,-1.8376,-1.8372,-1.8375,-1.8375,-1.8368,-1.8369,-1.8363,-1.8363,-1.836,-1.8366,-1.8363,-1.8367,-1.8365,-1.8372,-1.8371,-1.8394,-1.8397,-1.8375,-1.8375,-1.8375,0,-1.8391,-1.8395,-1.839,-1.8391,-1.839,-1.8392,-1.8392,-1.8385,-1.8386,-1.8383,-1.8386,-1.8386,-1.8386,-1.8388,-1.8383,-1.8382,-1.8379,-1.8387,-1.8379,-1.838,-1.8378,-1.8377,-1.8377,-1.8389,-1.8389,-1.8389,-1.839,0,-1.8413,-1.841,-1.8411,-1.841,-1.8411,-1.841,-1.8409,-1.841,-1.8403,-1.8403,-1.8404,-1.8404,-1.8404,-1.8404,-1.8402,-1.84,-1.8393,-1.8392,-1.8394,-1.8395,-1.8397,-1.8395,-1.837,-1.8392,-1.8392,-1.8391,-1.8391,-1.8391,-1.843,-1.8433,-1.843,-1.8431,-1.8429,-1.8428,-1.843,-1.8426,-1.8427,-1.8426,-1.8421,-1.8423,-1.8419,-1.8417,-1.8415,-1.8415,-1.8411,-1.8413,-1.8414,-1.8414,-1.8415,-1.8397,-1.8415,-1.8415,-1.8415,-1.8415,-1.8415,0,-1.8451,-1.8448,-1.8449,-1.8448,-1.8448,-1.8442,-1.844,-1.8441,-1.8442,-1.844,-1.844,-1.844,-1.844,-1.8435,-1.8434,-1.8435,-1.8432,-1.8435,-1.8434,-1.8434,-1.8419,-1.8418,-1.8437,-1.8437,-1.8437,-1.8437,-1.8437,-1.8437,-1.8462,-1.8466,-1.8462,-1.8466,-1.8463,-1.8464,-1.8464,-1.8462,-1.846,-1.8461,-1.8461,-1.8458,-1.8454,-1.8452,-1.8451,-1.845,-1.8449,-1.8453,-1.8451,-1.8437,-1.8435,-1.8433,-1.8431,-1.8454,-1.8454,-1.8465,-1.8465,-1.8465]}]]